Change the Weather History Date:

Sunday, June 17, 2012

  Actual Average Record
Temperature  
Mean Temperature 77 °F 74 °F  
Max Temperature 91 °F 85 °F 102 °F (1918)
Min Temperature 63 °F 64 °F 47 °F (1974)
Degree Days  
Heating Degree Days 0 0  
Month to date heating degree days 8 6  
Since 1 June heating degree days 8 6  
Since 1 July heating degree days 4254 5456  
Cooling Degree Days 12 9  
Month to date cooling degree days 136 131  
Year to date cooling degree days 403 244  
Since 1 June cooling degree days 136 131  
Growing Degree Days 28 (Base 50)    
Moisture  
Dew Point 66 °F    
Average Humidity 74    
Maximum Humidity 100    
Minimum Humidity 47    
Precipitation  
Precipitation 0.00 in 0.13 in 3.63 in (1928)
Month to date precipitation 2.04 2.69  
Year to date precipitation 12.62 15.64  
Sea Level Pressure  
Sea Level Pressure 29.89 in    
Wind  
Wind Speed 9 mph (South)    
Max Wind Speed 20 mph    
Max Gust Speed 25 mph    
Visibility 6 miles    
Events Fog    
T = Trace of Precipitation, MM = Missing Value Source: NWS Daily Summary

Daily Weather History Graph

Daily Weather History Graph

Search for Another Location

Airport or City:

Trip Planner

Search our weather history database for the weather conditions in past years. The results will help you decide how hot, cold, wet, or windy it might be!

Date:

Astronomy

Jun. 17, 2012 Rise Set
Actual Time 5:51 AM CDT 8:50 PM CDT
Civil Twilight 5:18 AM CDT 9:23 PM CDT
Nautical Twilight 4:37 AM CDT 10:04 PM CDT
Astronomical Twilight 3:48 AM CDT 10:52 PM CDT
Moon 4:20 AM CDT (6/17) 7:19 PM CDT (6/17)
Length of Visible Light 16h 04m
Length of Day
14h 59m
Waning Crescent, 3% of the Moon is Illuminated
Jun 17
Waning Crescent
Jun 19
New
Jun 26
First Quarter
Jul 3
Full
Jul 10
Last Quarter

Hourly Weather History & Observations

Time (CDT) Temp. Heat Index Dew Point Humidity Pressure Visibility Wind Dir Wind Speed Gust Speed Precip Events Conditions
12:53 AM 66.9 °F - 64.9 °F 93% 29.98 in 10.0 mi Calm Calm - N/A   Clear
1:53 AM 64.9 °F - 64.0 °F 97% 29.98 in 9.0 mi Calm Calm - N/A   Clear
2:42 AM 64.4 °F - 64.4 °F 100% 29.99 in 5.0 mi SSE 3.5 mph - N/A   Scattered Clouds
2:46 AM 64.4 °F - 64.4 °F 100% 29.99 in 1.2 mi SSE 3.5 mph - N/A   Mostly Cloudy
2:48 AM 64.4 °F - 64.4 °F 100% 29.99 in 0.5 mi Calm Calm - N/A Fog Fog
2:53 AM 64.9 °F - 64.0 °F 97% 29.97 in 0.2 mi Calm Calm - N/A Fog Fog
3:03 AM 64.4 °F - 64.4 °F 100% 29.99 in 1.0 mi SSE 4.6 mph - N/A   Mist
3:07 AM 64.4 °F - 64.4 °F 100% 29.99 in 3.0 mi SSE 3.5 mph - N/A   Mostly Cloudy
3:16 AM 64.4 °F - 64.4 °F 100% 29.99 in 3.0 mi Calm Calm - N/A   Scattered Clouds
3:36 AM 64.4 °F - 62.6 °F 94% 29.99 in 1.8 mi Calm Calm - N/A   Partly Cloudy
3:38 AM 64.4 °F - 62.6 °F 94% 29.99 in 0.8 mi Calm Calm - N/A   Mist
3:46 AM 64.4 °F - 64.4 °F 100% 29.98 in 0.2 mi Calm Calm - N/A Fog Fog
3:53 AM 64.0 °F - 64.0 °F 100% 29.97 in 0.2 mi Calm Calm - N/A Fog Fog
4:08 AM 64.4 °F - 64.4 °F 100% 29.98 in 0.2 mi Calm Calm - N/A Fog Fog
4:31 AM 64.4 °F - 64.4 °F 100% 29.98 in 0.2 mi Calm Calm - N/A Fog Fog
4:40 AM 64.4 °F - 62.6 °F 94% 29.98 in 0.2 mi Calm Calm - N/A Fog Fog
4:51 AM 64.4 °F - 62.6 °F 94% 29.98 in 0.2 mi Calm Calm - N/A Fog Fog
4:53 AM 64.0 °F - 63.0 °F 96% 29.96 in 0.2 mi Calm Calm - N/A Fog Fog
5:53 AM 64.0 °F - 63.0 °F 96% 29.97 in 0.2 mi Calm Calm - N/A Fog Fog
6:14 AM 64.4 °F - 64.4 °F 100% 29.98 in 0.2 mi Calm Calm - N/A Fog Fog
6:25 AM 64.4 °F - 64.4 °F 100% 29.98 in 1.2 mi Calm Calm - N/A   Scattered Clouds
6:28 AM 64.4 °F - 64.4 °F 100% 29.98 in 3.0 mi Calm Calm - N/A   Scattered Clouds
6:53 AM 66.9 °F - 66.0 °F 97% 29.96 in 4.0 mi Calm Calm - N/A   Partly Cloudy
7:53 AM 70.0 °F - 68.0 °F 93% 29.94 in 10.0 mi South 3.5 mph - N/A   Clear
8:53 AM 75.9 °F - 66.9 °F 74% 29.94 in 10.0 mi South 4.6 mph - N/A   Clear
9:53 AM 80.1 °F 81.9 °F 64.9 °F 60% 29.91 in 10.0 mi SE 6.9 mph - N/A   Clear
10:53 AM 81.0 °F 83.8 °F 68.0 °F 65% 29.88 in 10.0 mi SSE 8.1 mph - N/A   Clear
11:45 AM 84.2 °F 90.9 °F 73.4 °F 70% 29.88 in 10.0 mi South 10.4 mph - N/A   Mostly Cloudy
11:53 AM 82.9 °F 88.0 °F 72.0 °F 69% 29.86 in 10.0 mi SSE 10.4 mph - N/A   Mostly Cloudy
12:15 PM 84.2 °F 89.6 °F 71.6 °F 66% 29.87 in 10.0 mi SSE 10.4 mph - N/A   Mostly Cloudy
12:53 PM 86.0 °F 93.0 °F 73.0 °F 65% 29.83 in 10.0 mi South 10.4 mph - N/A   Scattered Clouds
1:53 PM 88.0 °F 93.8 °F 71.1 °F 57% 29.80 in 10.0 mi South 12.7 mph - N/A   Scattered Clouds
2:53 PM 89.1 °F 93.7 °F 69.1 °F 52% 29.76 in 10.0 mi South 13.8 mph 24.2 mph N/A   Mostly Cloudy
3:53 PM 91.0 °F 95.6 °F 69.1 °F 48% 29.73 in 10.0 mi South 16.1 mph 24.2 mph N/A   Partly Cloudy
4:53 PM 90.0 °F 94.5 °F 69.1 °F 50% 29.70 in 10.0 mi South 13.8 mph 21.9 mph N/A   Scattered Clouds
5:53 PM 91.0 °F 95.2 °F 68.0 °F 47% 29.68 in 10.0 mi South 13.8 mph 25.3 mph N/A   Clear
6:53 PM 90.0 °F 92.8 °F 66.9 °F 46% 29.67 in 10.0 mi SSW 11.5 mph - N/A   Clear
7:53 PM 88.0 °F 90.7 °F 66.9 °F 49% 29.66 in 10.0 mi SSW 15.0 mph 24.2 mph N/A   Clear
8:53 PM 84.9 °F 88.2 °F 68.0 °F 57% 29.65 in 10.0 mi South 9.2 mph - N/A   Clear
9:53 PM 82.9 °F 85.8 °F 68.0 °F 60% 29.65 in 10.0 mi South 11.5 mph - N/A   Clear
10:53 PM 84.0 °F 87.0 °F 68.0 °F 58% 29.64 in 10.0 mi South 12.7 mph - N/A   Clear
11:53 PM 82.9 °F 85.8 °F 68.0 °F 60% 29.63 in 10.0 mi South 18.4 mph 27.6 mph N/A   Clear